Showing default

EXPLORER 7, 22

Orbit data source: Space-Track

EXPLORER 7, 22 is a payload satellite owned by GSFC (US) in LEO that was launched on Tue, 13 Oct 1959 UTC via a JUNO II launch vehicle from the Air Force Eastern Test Range (AFETR). Payload-class satellites include a variety of spacecraft equipped with specific instruments for various scientific and technological missions. These include communications satellites like Starlink; space stations such as the ISS; scientific satellites like the Hubble; Earth observation satellites from companies like Planet Labs, Umbra, and HawkEye 360; GPS; miniature CubeSats for education and research; and military/defense satellites.

Loading next visibility...
Identifier
22, 1959-009A
Orbit
LEO
Country
Flag of USUS
Related business
Manufacturer
ABMA
Mission
Spacecraft
Bus & Motor
S-1, Unknown motor
Mass
41 kg wet, 41 kg dry
Launch date (UTC)
1959-10-13 (66 years ago)
Launch vehicle
JUNO II
Launch site
Air Force Eastern Test Range (AFETR)
Object type
Payload
Rocket body
Debris
Shape & HBR
Unknown
Radar Cross Section
Medium (>0.1 m² and <1 m²)

Expand to show TLE details & history
Last TLE update: 7 hours ago

TLE from 7 hours ago
0 EXPLORER 7
1 00022U 59009A   26070.88753822  .00017786  00000-0  61755-3 0  9991
2 00022  50.2410 220.5530 0080640  93.0094 268.0097 15.26727846785479
Epoch: 2026-03-11T21:18Z
TLE epoch observation values (Epoch: 2026-03-11T21:18:03.302Z)
Latitude
-0.00002°
Longitude
91.49389°
Altitude
488.551 km
Speed
7.621 km/s
True Right ascension
14h 42m 12s
True Declination
0° 00' 00"
Sunlit
Object was in full shadow at epoch
Visualization orbit readout
Latitude
Unknown
Longitude
Unknown
Altitude
Unknown
Speed
Unknown
Apparent Right ascension
Unknown
Apparent Declination
Unknown
Sunlit
N/A
Visualization observer readout
Local Sidereal Time
08:38:46
Azimuth
Unknown
Elevation
Unknown
Doppler factor
Unknown
Orbital elements
Apogee altitude
541.69 km
Perigee altitude
430.98 km
Semi-major axis
6,864.472 km
Eccentricity
0.00806
Inclination
50.241°
RAAN
220.553°
Arg. of periapsis
93.0094°
True anomaly
267.08655°
Mean anomaly
268.0097°
Eccentric anomaly
267.54809°
Mean motion
3.81621 °/min
Orbital period
94.33 mins
BSTAR
0.00061755
Loading maneuver chart data...
Computing Atmospheric mass density...
Loading historical data...
Loading historical data...
Loading historical data...
Loading historical data...
Loading historical data...
Loading historical data...
Loading historical data...
Other satellites on launch #9 in the year 1959 (1959-10-13 UTC)

Documentation

Showing up to 5 results
|